Weather History for Madison, MN

Change the Weather History Date:

Saturday, May 17, 2014

  Actual Average (KAQP) Record (KAQP)
Temperature  
Mean Temperature 55 °F -  
Max Temperature 71 °F 65 °F 93 °F (2012)
Min Temperature 39 °F 43 °F 30 °F (2002)
Degree Days  
Heating Degree Days 10    
Growing Degree Days 5 (Base 50)    
Moisture  
Dew Point 32 °F    
Average Humidity 42    
Maximum Humidity 75    
Minimum Humidity 17    
Precipitation  
Precipitation 0.00 in - - ()
Sea Level Pressure  
Sea Level Pressure 30.02 in    
Wind  
Wind Speed 8 mph (West)    
Max Wind Speed 16 mph    
Max Gust Speed 21 mph    
Visibility 10 miles    
Events      
Averages and records for this station are not official NWS values.
T = Trace of Precipitation, MM = Missing Value Source: NWS Daily Summary

Daily Weather History Graph

Daily Weather History Graph

Search for Another Location

Airport:

Trip Planner

Search our weather history database for the weather conditions in past years. The results will help you decide how hot, cold, wet, or windy it might be!

Date:

Astronomy

May. 17, 2014 Rise Set
Actual Time 5:53 AM CDT 8:49 PM CDT
Civil Twilight 5:19 AM CDT 9:24 PM CDT
Nautical Twilight 4:35 AM CDT 10:08 PM CDT
Astronomical Twilight 3:43 AM CDT 11:00 PM CDT
Moon 11:49 PM CDT (5/17) 8:38 AM CDT (5/17)
Length of Visible Light 16h 04m
Length of Day
14h 55m
Waning Gibbous, 89% of the Moon is Illuminated
May 17
Waning Gibbous
May 21
Last Quarter
May 28
New
Jun 5
First Quarter
Jun 12
Full

Hourly Weather History & Observations

Time (CDT) Temp. Windchill Dew Point Humidity Pressure Visibility Wind Dir Wind Speed Gust Speed Precip Events Conditions
12:13 AM 42.8 °F 39.3 °F 32.0 °F 66% 30.07 in 10.0 mi SW 5.8 mph - N/A   Clear
12:33 AM 42.8 °F 39.3 °F 32.0 °F 66% 30.07 in 10.0 mi SW 5.8 mph - N/A   Scattered Clouds
12:54 AM 42.8 °F 40.1 °F 32.0 °F 66% 30.07 in 10.0 mi SSW 4.6 mph - N/A   Mostly Cloudy
1:13 AM 42.8 °F 40.1 °F 32.0 °F 66% 30.07 in 10.0 mi SSW 4.6 mph - N/A   Scattered Clouds
1:33 AM 42.8 °F 41.1 °F 32.0 °F 66% 30.07 in 10.0 mi SSW 3.5 mph - N/A   Clear
1:54 AM 42.8 °F 40.1 °F 30.2 °F 61% 30.07 in 10.0 mi SSW 4.6 mph - N/A   Clear
2:13 AM 39.2 °F 35.0 °F 32.0 °F 75% 30.07 in 10.0 mi SSW 5.8 mph - N/A   Clear
2:33 AM 39.2 °F 35.0 °F 30.2 °F 70% 30.06 in 10.0 mi SSW 5.8 mph - N/A   Clear
2:54 AM 39.2 °F 35.0 °F 30.2 °F 70% 30.06 in 10.0 mi South 5.8 mph - N/A   Clear
3:13 AM 39.2 °F 35.0 °F 30.2 °F 70% 30.06 in 10.0 mi SSW 5.8 mph - N/A   Clear
3:33 AM 39.2 °F 37.0 °F 30.2 °F 70% 30.06 in 10.0 mi SSW 3.5 mph - N/A   Clear
3:54 AM 39.2 °F 35.0 °F 30.2 °F 70% 30.05 in 10.0 mi SSW 5.8 mph - N/A   Clear
4:13 AM 41.0 °F 37.1 °F 30.2 °F 65% 30.05 in 10.0 mi SW 5.8 mph - N/A   Clear
4:33 AM 39.2 °F 35.0 °F 30.2 °F 70% 30.04 in 10.0 mi SW 5.8 mph - N/A   Clear
4:54 AM 42.8 °F 38.0 °F 30.2 °F 61% 30.04 in 10.0 mi SW 8.1 mph - N/A   Clear
5:13 AM 42.8 °F 38.0 °F 30.2 °F 61% 30.04 in 10.0 mi SW 8.1 mph - N/A   Clear
5:33 AM 41.0 °F 35.2 °F 30.2 °F 65% 30.03 in 10.0 mi SW 9.2 mph - N/A   Clear
5:54 AM 42.8 °F 38.6 °F 32.0 °F 66% 30.03 in 10.0 mi WSW 6.9 mph - N/A   Clear
6:13 AM 44.6 °F 39.2 °F 30.2 °F 57% 30.03 in 10.0 mi WSW 10.4 mph - N/A   Clear
6:33 AM 46.4 °F 41.5 °F 30.2 °F 53% 30.02 in 10.0 mi WSW 10.4 mph - N/A   Clear
6:54 AM 48.2 °F - 30.2 °F 50% 30.02 in 10.0 mi WSW 11.5 mph 17.3 mph N/A   Clear
7:13 AM 48.2 °F - 30.2 °F 50% 30.02 in 10.0 mi WSW 10.4 mph - N/A   Clear
7:33 AM 50.0 °F - 32.0 °F 50% 30.02 in 10.0 mi West 13.8 mph - N/A   Clear
7:54 AM 51.8 °F - 35.6 °F 54% 30.03 in 10.0 mi West 9.2 mph - N/A   Clear
8:14 AM 55.4 °F - 35.6 °F 47% 30.02 in 10.0 mi West 16.1 mph 20.7 mph N/A   Clear
8:33 AM 55.4 °F - 37.4 °F 51% 30.03 in 10.0 mi West 15.0 mph 20.7 mph N/A   Clear
8:54 AM 57.2 °F - 39.2 °F 51% 30.03 in 10.0 mi WNW 15.0 mph - N/A   Clear
9:14 AM 59.0 °F - 39.2 °F 48% 30.03 in 10.0 mi West 15.0 mph - N/A   Clear
9:33 AM 60.8 °F - 39.2 °F 45% 30.04 in 10.0 mi WNW 15.0 mph - N/A   Clear
9:54 AM 60.8 °F - 39.2 °F 45% 30.03 in 10.0 mi WNW 13.8 mph - N/A   Clear
10:13 AM 62.6 °F - 39.2 °F 42% 30.03 in 10.0 mi WNW 10.4 mph - N/A   Clear
10:34 AM 62.6 °F - 37.4 °F 39% 30.03 in 10.0 mi WNW 12.7 mph - N/A   Clear
10:54 AM 64.4 °F - 35.6 °F 34% 30.04 in 10.0 mi NW 9.2 mph - N/A   Clear
11:13 AM 64.4 °F - 35.6 °F 34% 30.03 in 10.0 mi North 9.2 mph - N/A   Clear
11:34 AM 64.4 °F - 33.8 °F 32% 30.04 in 10.0 mi NNW 10.4 mph - N/A   Clear
11:54 AM 66.2 °F - 32.0 °F 28% 30.03 in 10.0 mi NNW 6.9 mph - N/A   Clear
12:13 PM 66.2 °F - 30.2 °F 26% 30.03 in 10.0 mi NW 8.1 mph 20.7 mph N/A   Clear
12:34 PM 66.2 °F - 30.2 °F 26% 30.03 in 10.0 mi WNW 5.8 mph 10.4 mph N/A   Clear
12:54 PM 66.2 °F - 28.4 °F 24% 30.02 in 10.0 mi NW 5.8 mph 10.4 mph N/A   Clear
1:13 PM 66.2 °F - 24.8 °F 21% 30.02 in 10.0 mi North 10.4 mph - N/A   Clear
1:34 PM 68.0 °F - 26.6 °F 21% 30.02 in 10.0 mi West 4.6 mph - N/A   Clear
1:53 PM 68.0 °F - 26.6 °F 21% 30.01 in 10.0 mi NW 9.2 mph 18.4 mph N/A   Clear
2:14 PM 69.8 °F - 28.4 °F 21% 30.01 in 10.0 mi NW 6.9 mph - N/A   Clear
2:34 PM 69.8 °F - 28.4 °F 21% 30.01 in 10.0 mi NW 8.1 mph - N/A   Clear
3:14 PM 69.8 °F - 26.6 °F 20% 30.00 in 10.0 mi West 11.5 mph - N/A   Clear
3:34 PM 69.8 °F - 24.8 °F 18% 30.00 in 10.0 mi NW 5.8 mph - N/A   Clear
3:53 PM 69.8 °F - 23.0 °F 17% 29.99 in 10.0 mi WNW 4.6 mph - N/A   Clear
4:14 PM 69.8 °F - 26.6 °F 20% 29.99 in 10.0 mi NNW 4.6 mph - N/A   Clear
4:34 PM 71.6 °F - 24.8 °F 17% 29.99 in 10.0 mi West 9.2 mph - N/A   Clear
4:53 PM 69.8 °F - 26.6 °F 20% 29.99 in 10.0 mi NW 6.9 mph 11.5 mph N/A   Clear
5:14 PM 71.6 °F - 26.6 °F 19% 29.98 in 10.0 mi WNW 9.2 mph - N/A   Clear
5:34 PM 69.8 °F - 26.6 °F 20% 29.98 in 10.0 mi West 11.5 mph - N/A   Clear
5:53 PM 69.8 °F - 28.4 °F 21% 29.98 in 10.0 mi WNW 10.4 mph - N/A   Clear
6:14 PM 69.8 °F - 26.6 °F 20% 29.98 in 10.0 mi NW 8.1 mph - N/A   Scattered Clouds
6:34 PM 69.8 °F - 30.2 °F 23% 29.98 in 10.0 mi West 9.2 mph - N/A   Scattered Clouds
6:53 PM 69.8 °F - 28.4 °F 21% 29.98 in 10.0 mi NW 6.9 mph - N/A   Scattered Clouds
7:14 PM 69.8 °F - 30.2 °F 23% 29.98 in 10.0 mi West 12.7 mph - N/A   Scattered Clouds
7:34 PM 68.0 °F - 33.8 °F 28% 29.98 in 10.0 mi West 8.1 mph - N/A   Scattered Clouds
7:53 PM 68.0 °F - 32.0 °F 26% 29.98 in 10.0 mi West 6.9 mph - N/A   Scattered Clouds
8:14 PM 66.2 °F - 33.8 °F 30% 29.99 in 10.0 mi WSW 6.9 mph - N/A   Mostly Cloudy
8:34 PM 64.4 °F - 33.8 °F 32% 29.99 in 10.0 mi WSW 4.6 mph - N/A   Scattered Clouds
8:53 PM 64.4 °F - 33.8 °F 32% 29.99 in 10.0 mi WSW 5.8 mph - N/A   Scattered Clouds
9:14 PM 62.6 °F - 35.6 °F 37% 29.99 in 10.0 mi SW 6.9 mph - N/A   Scattered Clouds
9:34 PM 62.6 °F - 33.8 °F 34% 30.00 in 10.0 mi WSW 10.4 mph - N/A   Scattered Clouds
9:53 PM 60.8 °F - 33.8 °F 36% 30.00 in 10.0 mi WSW 6.9 mph - N/A   Scattered Clouds
10:14 PM 60.8 °F - 33.8 °F 36% 30.01 in 10.0 mi WSW 6.9 mph - N/A   Clear
10:34 PM 55.4 °F - 35.6 °F 47% 30.01 in 10.0 mi WSW 6.9 mph - N/A   Clear
10:53 PM 55.4 °F - 35.6 °F 47% 30.01 in 10.0 mi SW 6.9 mph - N/A   Clear
11:14 PM 53.6 °F - 35.6 °F 51% 30.02 in 10.0 mi SW 8.1 mph - N/A   Clear
11:34 PM 53.6 °F - 35.6 °F 51% 30.02 in 10.0 mi SW 8.1 mph - N/A   Clear
11:53 PM 51.8 °F - 35.6 °F 54% 30.02 in 10.0 mi SW 8.1 mph - N/A   Clear